This is the latest recevied weather packets stored in our database for station/object KD0KHX-10. If no packets are shown the sender has not sent any weather packets the latest 10 day(s).
| Time | Temp. | Humidity | Pressure | Rain* | Wind** | Luminosity | Snow |
|---|---|---|---|---|---|---|---|
| 1777734903 | 10.56° C | 54% | 1016.6 hPa | 0 mm | - | - | - |
| 1777734603 | 10.56° C | 53% | 1016.7 hPa | 0 mm | - | - | - |
| 1777734303 | 10.56° C | 54% | 1016.6 hPa | 0 mm | - | - | - |
| 1777734137 | 10° C | 54% | 1016.7 hPa | 0 mm | - | - | - |
| 1777734009 | 10° C | 53% | 1016.7 hPa | 0 mm | - | - | - |
| 1777733403 | 9.44° C | 56% | 1016.6 hPa | 0 mm | - | - | - |
| 1777732803 | 8.89° C | 58% | 1016.8 hPa | 0 mm | - | - | - |
| 1777732503 | 8.89° C | 59% | 1016.8 hPa | 0 mm | - | - | - |
| 1777732203 | 8.89° C | 60% | 1016.8 hPa | 0 mm | - | - | - |
| 1777731903 | 8.89° C | 61% | 1016.8 hPa | 0 mm | - | - | - |
| 1777731872 | 8.89° C | 61% | 1016.8 hPa | 0 mm | - | - | - |
| 1777731303 | 8.33° C | 66% | 1016.8 hPa | 0 mm | - | - | - |
| 1777731108 | 8.33° C | 67% | 1016.8 hPa | 0 mm | - | - | - |
| 1777731003 | 8.33° C | 68% | 1016.8 hPa | 0 mm | - | - | - |
| 1777730373 | 7.78° C | 72% | 1016.8 hPa | 0 mm | - | - | - |
| 1777729503 | 6.67° C | 76% | 1016.8 hPa | 0 mm | - | - | - |
| 1777729203 | 6.11° C | 78% | 1016.9 hPa | 0 mm | - | - | - |
| 1777728903 | 5.56° C | 79% | 1016.9 hPa | 0 mm | - | - | - |
| 1777728872 | 5.56° C | 79% | 1016.8 hPa | 0 mm | - | - | - |
| 1777728303 | 5° C | 80% | 1016.6 hPa | 0 mm | - | - | - |
| 1777728137 | 5° C | 80% | 1016.7 hPa | 0 mm | - | - | - |
| 1777727703 | 3.89° C | 77% | 1016.7 hPa | 0 mm | - | - | - |
| 1777727536 | 3.89° C | 76% | 1016.6 hPa | 0 mm | - | - | - |
| 1777727103 | 2.78° C | 73% | 1016.6 hPa | 0 mm | - | - | - |
| 1777726803 | 1.67° C | 75% | 1016.5 hPa | 0 mm | - | - | - |
* Rain latest hour (hover to see other rain measurements)
** Current wind speed in m/s (hover to see current wind gust speed)